{"data":{"norad_id":47695,"epoch":"2026-09-20T21:29:44.203200Z","epoch_age_seconds":49940,"freshness":"FRESH","line1":"1 47695U 21014E   26263.89565050 -.00000085  00000+0  83861-5 0  9990","line2":"2 47695  63.4036 311.7140 0185424   1.2469 358.8983 13.45454607273609","mean_motion":13.45454607,"eccentricity":0.0185424,"inclination_deg":63.4036,"raan_deg":311.714,"arg_perigee_deg":1.2469,"mean_anomaly_deg":358.8983,"bstar":8.3861e-6,"rev_number":27360,"period_min":107.02702213126,"perigee_km":950.56985211368,"apogee_km":1227.48821096,"semimajor_km":7467.1660315368,"source":"CELESTRAK","updated_at":"2026-09-21T09:00:07.562269Z"}}